Torna al catalogo

DELTA 2 R/B(1)

AttivoUNKNOWN
NORAD 21965·ROCKET BODY·🇺🇸 United States

Lanciato May 14, 1992 da Cape Canaveral Space Force Station

Loading…

Prossimi Passaggi (prossime 24 ore)

TLE

AggiornatoSource: Space-Track

Epoca: Sep 14, 2026, 14:14 UTC

1 21965U 92027B   26257.59367444  .00000535  00000-0  90152-4 0  9991
2 21965  19.6822 140.5663 1356358 213.8458 136.7589 12.22626124526932

Traccia DELTA 2 R/B(1) in tempo reale con AllMySat

Download on the App Store